WMT1WD ENTO-LROP

Flight info

Callsign WMT1WD
Flight time N/A
Altitude 35000
Route BOMGU Y440 SABAK DCT GORPI DCT ROGAL DCT KENIN DCT DENAK
Aircraft A321/M-SDE1E2E3FGIJ1J4RWXY/LB1G1

Departure

Time N/A
Airport Sandefjord Airport, Torp (ENTO)

Arrival

Time 2026-05-05 21:33
Airport Bucharest Henri Coandă International Airport (LROP)
Time Latitude Longitude Altitude Speed Heading
2026-05-05 20:31 49.64496 20.77243 34876 ft 441 kts 150°
2026-05-05 20:32 49.59231 20.82115 34882 ft 441 kts 150°
2026-05-05 20:32 49.54016 20.86935 34886 ft 442 kts 151°
2026-05-05 20:33 49.48758 20.91780 34897 ft 442 kts 151°
2026-05-05 20:33 49.43471 20.96644 34899 ft 442 kts 151°
2026-05-05 20:34 49.38190 21.01491 34897 ft 442 kts 151°
2026-05-05 20:34 49.33808 21.05510 34897 ft 442 kts 151°
2026-05-05 20:35 49.28518 21.10334 34900 ft 443 kts 151°
2026-05-05 20:35 49.23224 21.15146 34903 ft 443 kts 151°
2026-05-05 20:36 49.17925 21.19961 34910 ft 443 kts 151°
2026-05-05 20:36 49.12626 21.24760 34909 ft 443 kts 151°
2026-05-05 20:37 49.07318 21.29545 34919 ft 443 kts 151°
2026-05-05 20:37 49.02017 21.34322 34923 ft 442 kts 151°
2026-05-05 20:38 48.96725 21.39085 34926 ft 442 kts 151°
2026-05-05 20:38 48.91429 21.43843 34928 ft 442 kts 151°
2026-05-05 20:39 48.86131 21.48581 34927 ft 442 kts 152°
2026-05-05 20:39 48.80830 21.53301 34920 ft 442 kts 151°
2026-05-05 20:40 48.75532 21.58029 34921 ft 442 kts 151°
2026-05-05 20:40 48.70239 21.62742 34926 ft 442 kts 151°
2026-05-05 20:41 48.64933 21.67441 34924 ft 441 kts 152°
2026-05-05 20:41 48.59632 21.72117 34929 ft 441 kts 152°
2026-05-05 20:42 48.54321 21.76787 34926 ft 441 kts 152°
2026-05-05 20:42 48.49020 21.81451 34930 ft 441 kts 151°
2026-05-05 20:43 48.43714 21.86111 34932 ft 441 kts 152°
2026-05-05 20:43 48.38439 21.90730 34932 ft 441 kts 151°
2026-05-05 20:44 48.33608 21.96438 34934 ft 444 kts 137°
2026-05-05 20:44 48.29157 22.02961 34925 ft 444 kts 137°
2026-05-05 20:45 48.22531 22.12629 34928 ft 445 kts 137°
2026-05-05 20:45 48.18089 22.19112 34934 ft 446 kts 137°
2026-05-05 20:46 48.13634 22.25580 34938 ft 446 kts 137°
2026-05-05 20:46 48.09183 22.32034 34931 ft 446 kts 137°
2026-05-05 20:47 48.04725 22.38498 34934 ft 447 kts 137°
2026-05-05 20:47 48.00249 22.44941 34936 ft 447 kts 137°
2026-05-05 20:48 47.95754 22.51374 34948 ft 448 kts 137°
2026-05-05 20:48 47.91260 22.57803 34950 ft 448 kts 137°
2026-05-05 20:49 47.86771 22.64226 34951 ft 448 kts 137°
2026-05-05 20:49 47.82295 22.70611 34961 ft 448 kts 137°
2026-05-05 20:50 47.77787 22.77015 34964 ft 448 kts 137°
2026-05-05 20:50 47.73280 22.83413 34966 ft 448 kts 137°
2026-05-05 20:51 47.68764 22.89804 34958 ft 449 kts 136°
2026-05-05 20:51 47.64242 22.96192 34958 ft 449 kts 136°
2026-05-05 20:52 47.59711 23.02572 34967 ft 449 kts 136°
2026-05-05 20:52 47.55178 23.08925 34974 ft 449 kts 137°
2026-05-05 20:53 47.50635 23.15287 34983 ft 449 kts 136°
2026-05-05 20:53 47.46098 23.21641 34979 ft 450 kts 136°
2026-05-05 20:54 47.41547 23.27998 34988 ft 451 kts 136°
2026-05-05 20:54 47.36978 23.34343 34990 ft 451 kts 136°
2026-05-05 20:55 47.32424 23.40636 34996 ft 452 kts 136°
2026-05-05 20:55 47.27845 23.46969 34989 ft 452 kts 136°
2026-05-05 20:56 47.23261 23.53308 34997 ft 453 kts 136°
2026-05-05 20:56 47.18663 23.59649 35000 ft 453 kts 136°
2026-05-05 20:57 47.14052 23.65978 35002 ft 454 kts 136°
2026-05-05 20:57 47.09439 23.72291 35008 ft 454 kts 136°
2026-05-05 20:58 47.04819 23.78610 35004 ft 454 kts 136°
2026-05-05 20:58 47.00186 23.84917 35002 ft 455 kts 136°
2026-05-05 20:59 46.95545 23.91220 34998 ft 455 kts 136°
2026-05-05 20:59 46.90902 23.97521 35007 ft 455 kts 136°
2026-05-05 21:00 46.86250 24.03818 35005 ft 456 kts 136°
2026-05-05 21:00 46.81595 24.10107 35006 ft 457 kts 136°
2026-05-05 21:01 46.76931 24.16395 35014 ft 457 kts 136°
2026-05-05 21:01 46.72252 24.22669 35016 ft 457 kts 136°
2026-05-05 21:02 46.67562 24.28944 35026 ft 457 kts 136°
2026-05-05 21:02 46.62879 24.35208 35022 ft 457 kts 136°
2026-05-05 21:03 46.58187 24.41459 35022 ft 457 kts 136°
2026-05-05 21:03 46.53498 24.47704 35023 ft 458 kts 136°
2026-05-05 21:04 46.48805 24.53958 35025 ft 458 kts 136°
2026-05-05 21:04 46.44093 24.60177 35027 ft 458 kts 136°
2026-05-05 21:05 46.39412 24.66339 35030 ft 458 kts 136°
2026-05-05 21:05 46.34703 24.72539 35031 ft 458 kts 136°
2026-05-05 21:06 46.29987 24.78730 35041 ft 458 kts 136°
2026-05-05 21:06 46.25266 24.84920 35032 ft 459 kts 136°
2026-05-05 21:07 46.20531 24.91128 35038 ft 460 kts 136°
2026-05-05 21:07 46.15789 24.97317 35046 ft 460 kts 136°
2026-05-05 21:08 46.11030 25.03489 35058 ft 460 kts 136°
2026-05-05 21:08 46.06276 25.09658 35052 ft 460 kts 136°
2026-05-05 21:09 46.01523 25.15824 35048 ft 460 kts 136°
2026-05-05 21:09 45.96774 25.21963 34817 ft 457 kts 136°
2026-05-05 21:10 45.94405 25.25013 34547 ft 453 kts 136°
2026-05-05 21:10 45.92067 25.28020 34080 ft 452 kts 136°
2026-05-05 21:10 45.89726 25.31033 33521 ft 450 kts 136°
2026-05-05 21:10 45.87432 25.33980 33038 ft 447 kts 136°
2026-05-05 21:11 45.85092 25.36976 32531 ft 444 kts 136°
2026-05-05 21:11 45.82828 25.39874 32049 ft 441 kts 136°
2026-05-05 21:11 45.80543 25.42800 31558 ft 438 kts 136°
2026-05-05 21:11 45.78269 25.45711 31066 ft 435 kts 136°
2026-05-05 21:12 45.76014 25.48594 30589 ft 433 kts 136°
2026-05-05 21:12 45.73777 25.51448 30108 ft 430 kts 136°
2026-05-05 21:12 45.71545 25.54292 29608 ft 427 kts 136°
2026-05-05 21:12 45.69341 25.57099 29156 ft 423 kts 136°
2026-05-05 21:13 45.67159 25.59874 28715 ft 418 kts 136°
2026-05-05 21:13 45.64988 25.62631 28271 ft 414 kts 136°
2026-05-05 21:13 45.62847 25.65349 27845 ft 411 kts 136°
2026-05-05 21:13 45.60715 25.68049 27433 ft 407 kts 136°
2026-05-05 21:14 45.58603 25.70721 27020 ft 404 kts 136°
2026-05-05 21:14 45.56506 25.73374 26612 ft 402 kts 136°
2026-05-05 21:14 45.54417 25.76014 26203 ft 400 kts 136°
2026-05-05 21:14 45.52370 25.78597 25801 ft 398 kts 136°
2026-05-05 21:15 45.50269 25.81244 25376 ft 396 kts 136°
2026-05-05 21:15 45.48237 25.83799 24953 ft 395 kts 136°
2026-05-05 21:15 45.46182 25.86378 24531 ft 393 kts 136°
2026-05-05 21:15 45.44132 25.88954 24096 ft 392 kts 136°
2026-05-05 21:16 45.42097 25.91518 23660 ft 391 kts 136°
2026-05-05 21:16 45.40062 25.94078 23154 ft 389 kts 136°
2026-05-05 21:16 45.38039 25.96617 22706 ft 386 kts 137°
2026-05-05 21:16 45.36031 25.99126 22261 ft 383 kts 137°
2026-05-05 21:17 45.34038 26.01615 21824 ft 380 kts 136°
2026-05-05 21:17 45.32061 26.04085 21372 ft 377 kts 136°
2026-05-05 21:17 45.30104 26.06531 20921 ft 373 kts 136°
2026-05-05 21:17 45.28161 26.08958 20473 ft 370 kts 136°
2026-05-05 21:18 45.26236 26.11363 20044 ft 368 kts 136°
2026-05-05 21:18 45.24320 26.13753 19613 ft 365 kts 136°
2026-05-05 21:18 45.22419 26.16119 19171 ft 363 kts 136°
2026-05-05 21:18 45.20526 26.18467 18739 ft 360 kts 136°
2026-05-05 21:19 45.18645 26.20800 18303 ft 358 kts 136°
2026-05-05 21:19 45.16779 26.23112 17839 ft 355 kts 136°
2026-05-05 21:19 45.14934 26.25399 17425 ft 351 kts 136°
2026-05-05 21:19 45.13104 26.27663 16990 ft 347 kts 136°
2026-05-05 21:20 45.11320 26.29868 16590 ft 344 kts 136°
2026-05-05 21:20 45.09524 26.32086 16165 ft 341 kts 136°
2026-05-05 21:20 45.07744 26.34284 15768 ft 338 kts 136°
2026-05-05 21:20 45.05980 26.36460 15366 ft 335 kts 135°
2026-05-05 21:21 45.04228 26.38618 14960 ft 333 kts 135°
2026-05-05 21:21 45.02489 26.40758 14561 ft 330 kts 135°
2026-05-05 21:21 45.00748 26.42854 14163 ft 329 kts 140°
2026-05-05 21:21 44.98771 26.44535 13768 ft 331 kts 151°
2026-05-05 21:22 44.96698 26.45907 13362 ft 328 kts 151°
2026-05-05 21:22 44.94640 26.47269 12979 ft 325 kts 151°
2026-05-05 21:22 44.92605 26.48621 12600 ft 322 kts 151°
2026-05-05 21:22 44.90587 26.49964 12222 ft 320 kts 151°
2026-05-05 21:23 44.88583 26.51299 11848 ft 318 kts 152°
2026-05-05 21:23 44.86589 26.52627 11472 ft 315 kts 152°
2026-05-05 21:23 44.84610 26.53939 11113 ft 313 kts 152°
2026-05-05 21:23 44.82649 26.55234 10756 ft 311 kts 152°
2026-05-05 21:24 44.81362 26.56086 10533 ft 309 kts 152°
2026-05-05 21:24 44.79409 26.57379 10124 ft 309 kts 152°
2026-05-05 21:24 44.77474 26.58658 9766 ft 307 kts 152°
2026-05-05 21:24 44.75542 26.59933 9412 ft 304 kts 153°
2026-05-05 21:25 44.73642 26.61190 9186 ft 297 kts 153°
2026-05-05 21:25 44.71804 26.62403 9052 ft 287 kts 153°
2026-05-05 21:25 44.69986 26.63429 8919 ft 279 kts 164°
2026-05-05 21:25 44.68097 26.63825 8772 ft 272 kts 173°
2026-05-05 21:26 44.66225 26.64082 8475 ft 269 kts 174°
2026-05-05 21:26 44.64357 26.63966 7939 ft 272 kts 193°
2026-05-05 21:26 44.62632 26.62966 7557 ft 266 kts 214°
2026-05-05 21:26 44.61287 26.61273 7309 ft 255 kts 233°
2026-05-05 21:27 44.60411 26.59147 6780 ft 251 kts 252°
2026-05-05 21:27 44.60063 26.56777 6201 ft 247 kts 267°
2026-05-05 21:27 44.59895 26.54384 5640 ft 247 kts 267°
2026-05-05 21:27 44.59727 26.51994 5274 ft 244 kts 266°
2026-05-05 21:28 44.59560 26.49660 4981 ft 238 kts 266°
2026-05-05 21:28 44.59394 26.47355 4701 ft 236 kts 266°
2026-05-05 21:28 44.59230 26.45074 4417 ft 235 kts 266°
2026-05-05 21:28 44.59065 26.42798 4137 ft 233 kts 266°
2026-05-05 21:29 44.58902 26.40540 3860 ft 232 kts 266°
2026-05-05 21:29 44.58739 26.38300 3572 ft 230 kts 265°
2026-05-05 21:29 44.58577 26.36077 3321 ft 228 kts 265°
2026-05-05 21:29 44.58415 26.33869 3048 ft 227 kts 265°
2026-05-05 21:30 44.58255 26.31680 2779 ft 225 kts 265°
2026-05-05 21:30 44.58095 26.29513 2513 ft 220 kts 264°
2026-05-05 21:30 44.57941 26.27413 2253 ft 213 kts 264°
2026-05-05 21:30 44.57790 26.25380 2019 ft 204 kts 263°
2026-05-05 21:31 44.57653 26.23512 1781 ft 185 kts 263°
2026-05-05 21:31 44.57527 26.21820 1556 ft 165 kts 263°
2026-05-05 21:31 44.57413 26.20285 1359 ft 153 kts 262°
2026-05-05 21:31 44.57302 26.18799 1180 ft 149 kts 262°
2026-05-05 21:32 44.57195 26.17377 1011 ft 148 kts 263°
2026-05-05 21:32 44.57087 26.15935 830 ft 149 kts 263°
2026-05-05 21:32 44.56977 26.14494 658 ft 149 kts 263°
2026-05-05 21:32 44.56867 26.13057 485 ft 148 kts 264°
2026-05-05 21:33 44.56764 26.11619 335 ft 145 kts 264°
2026-05-05 21:33 44.56666 26.10358 323 ft 109 kts 264°
2026-05-05 21:33 44.56605 26.09542 323 ft 62 kts 264°
2026-05-05 21:33 44.56564 26.09002 323 ft 49 kts 264°
2026-05-05 21:34 44.56564 26.08699 321 ft 25 kts 295°
2026-05-05 21:34 44.56690 26.08583 323 ft 22 kts 352°
2026-05-05 21:34 44.56810 26.08566 323 ft 15 kts 354°
2026-05-05 21:34 44.56892 26.08536 323 ft 12 kts 308°
2026-05-05 21:35 44.56899 26.08417 323 ft 12 kts 292°
2026-05-05 21:35 44.56952 26.08346 323 ft 11 kts 281°
2026-05-05 21:35 44.56943 26.08227 323 ft 13 kts 264°
2026-05-05 21:35 44.56935 26.08114 323 ft 6 kts 264°
2026-05-05 21:36 44.56964 26.08085 323 ft 7 kts 356°
2026-05-05 21:36 44.56999 26.08082 321 ft 1 kts 354°
2026-05-05 21:36 44.57007 26.08081 321 ft 2 kts 354°
2026-05-05 21:36 44.57011 26.08080 321 ft 0 kts 354°